Home > Weather > Salzwedel > Past weeks

Flag for Germany Past Weather in Salzwedel, Saxony-Anhalt, Germany — Yesterday and Last 2 Weeks

Now
63 °F

Broken clouds.


Feels Like: 63 °F
Forecast: 54 / 70 °F
Wind: 3 mph from Southwest

Location: Fassberg

Current Time: Jul 31, 2016 at 11:37:57 AM

Latest Report: Jul 31, 2016 at 10:20 AM


Visibility: N/A

Pressure: 29.89 "Hg

Humidity: 88%

Dew Point: 59 °F

Location of SalzwedelLocation

Past Weather in Salzwedel — Graph

°F

Salzwedel Temperature Yesterday

Maximum temperature yesterday: 72 °F (at 11:20 AM)
Minimum temperature yesterday: 61 °F (at 12:20 AM)
Average temperature yesterday: 66 °F

High & Low Weather Summary for the Past Weeks

 TemperatureHumidityPressure
High88 °F (Jul 21, 4:20 PM)100% (Jul 17, 6:20 AM)30.21 "Hg (Jul 17, 6:20 AM)
Low52 °F (Jul 19, 3:20 AM)36% (Jul 26, 4:20 PM)29.83 "Hg (Jul 29, 3:20 PM)
Average68 °F73%30.03 "Hg
* Reported Jul 16 9:20 AM — Jul 31 9:20 AM, Salzwedel, Weather by CustomWeather, © 2016

Note: Actual official high and low records may vary slightly from our data, if they occured in-between our weather recording intervals... More about our weather records

Advertising

Salzwedel Weather History for the Previous 24 Hours

Scroll right to see more
 ConditionsComfort  
Time TempWeatherWind HumidityBarometerVisibility
9:20 AM
Sun, Jul 31
61 °FPartly sunny.6 mph88%29.89 "HgN/A
8:20 AM61 °FPartly sunny.6 mph88%29.89 "HgN/A
7:20 AM59 °FPartly sunny.5 mph94%29.89 "HgN/A
6:20 AM59 °FPassing clouds.2 mph94%29.89 "HgN/A
5:20 AM59 °FPassing clouds.2 mph94%29.89 "HgN/A
4:20 AM59 °FPartly cloudy.2 mph94%29.89 "HgN/A
3:20 AM59 °FLight rain. Partly cloudy.1 mph94%29.89 "Hg5 mi
2:20 AM59 °FPartly cloudy.2 mph88%29.89 "HgN/A
1:20 AM61 °FLight rain. Passing clouds.2 mph88%29.92 "HgN/A
12:20 AM63 °FLight rain. Passing clouds.5 mph88%29.92 "HgN/A
11:20 PM
Sat, Jul 30
63 °FLight rain. Passing clouds.5 mph88%29.92 "HgN/A
10:20 PM64 °FPartly cloudy.3 mph78%29.92 "HgN/A
9:20 PM66 °FPartly sunny.3 mph73%29.92 "HgN/A
8:20 PM66 °FPartly sunny.5 mph73%29.89 "HgN/A
7:20 PM68 °FPartly sunny.6 mph69%29.89 "HgN/A
6:20 PM66 °FBroken clouds.9 mph73%29.89 "HgN/A
5:20 PM68 °FPartly sunny.13 mph64%29.89 "HgN/A
4:20 PM72 °FBroken clouds.13 mph61%29.86 "HgN/A
3:20 PM72 °FPartly sunny.14 mph61%29.86 "HgN/A
2:20 PM72 °FPartly sunny.14 mph53%29.86 "HgN/A
1:20 PM72 °FScattered clouds.13 mph57%29.86 "HgN/A
12:20 PM68 °FScattered clouds.14 mph56%29.86 "HgN/A
11:20 AM72 °FScattered clouds.17 mph53%29.86 "HgN/A
Weather by CustomWeather, © 2016

See weather overviewHow to use our weather pages